| time (UTC) | temp F | wind direction | speed knots | gust knots | rain 1hr in | rain 24hr in | rain mn in | humidity % | barometer mb |
| 20260504081555 | 46 | 346 | 0.0 | 1.7 | 0.00 | 0.00 | 0.00 | 59 | 1014.0 |
| 20260504044603 | 47 | 0 | 0.0 | 0.9 | 0.00 | 0.00 | 0.00 | 60 | 1014.1 |
| 20260504043055 | 47 | 0 | 0.0 | 0.0 | 0.00 | 0.00 | 0.00 | 57 | 1014.1 |
| 20260504041554 | 48 | 0 | 0.0 | 1.7 | 0.00 | 0.00 | 0.00 | 58 | 1014.0 |
| 20260504040104 | 49 | 0 | 0.0 | 0.9 | 0.00 | 0.00 | 0.00 | 53 | 1014.1 |
| 20260504034559 | 49 | 0 | 0.0 | 1.7 | 0.00 | 0.00 | 0.00 | 52 | 1013.9 |
| 20260504033126 | 49 | 0 | 0.0 | 2.6 | 0.00 | 0.00 | 0.00 | 52 | 1013.8 |
| 20260504031557 | 50 | 0 | 0.0 | 0.9 | 0.00 | 0.00 | 0.00 | 50 | 1013.8 |
| 20260504030052 | 51 | 0 | 0.0 | 0.0 | 0.00 | 0.00 | 0.00 | 51 | 1013.6 |
| 20260504024556 | 51 | 0 | 0.0 | 1.7 | 0.00 | 0.00 | 0.00 | 46 | 1013.6 |
| 20260504023104 | 51 | 0 | 0.0 | 0.0 | 0.00 | 0.00 | 0.00 | 48 | 1013.6 |
| 20260504021554 | 52 | 0 | 0.0 | 1.7 | 0.00 | 0.00 | 0.00 | 46 | 1013.6 |
| 20260504020057 | 53 | 0 | 0.0 | 4.3 | 0.00 | 0.00 | 0.00 | 43 | 1013.7 |
| 20260504014551 | 53 | 323 | 1.7 | 3.5 | 0.00 | 0.00 | 0.00 | 42 | 1013.6 |
| 20260504013106 | 53 | 350 | 0.9 | 2.6 | 0.00 | 0.00 | 0.00 | 43 | 1013.6 |
| 20260504011556 | 53 | 352 | 0.9 | 2.6 | 0.00 | 0.00 | 0.00 | 43 | 1013.6 |
| 20260504010110 | 53 | 9 | 0.9 | 1.7 | 0.00 | 0.00 | 0.00 | 43 | 1013.5 |
| 20260504004624 | 53 | 352 | 0.9 | 2.6 | 0.00 | 0.00 | 0.00 | 45 | 1013.4 |
| 20260504003054 | 53 | 5 | 0.9 | 1.7 | 0.00 | 0.00 | 0.00 | 43 | 1013.3 |
| 20260504001607 | 53 | 352 | 0.9 | 1.7 | 0.00 | 0.00 | 0.00 | 44 | 1013.2 |
| 20260504000050 | 55 | 346 | 0.9 | 2.6 | 0.00 | 0.00 | 0.00 | 42 | 1013.0 |
| 20260503234554 | 56 | 328 | 0.0 | 3.5 | 0.00 | 0.00 | 0.00 | 38 | 1012.8 |
| 20260503233053 | 56 | 309 | 0.0 | 7.0 | 0.00 | 0.00 | 0.00 | 37 | 1012.7 |
| 20260503231556 | 57 | 308 | 0.9 | 4.3 | 0.00 | 0.00 | 0.00 | 35 | 1012.6 |
| 20260503230054 | 58 | 311 | 0.9 | 7.0 | 0.00 | 0.00 | 0.00 | 35 | 1012.6 |
| 20260503224553 | 58 | 252 | 3.5 | 8.7 | 0.00 | 0.00 | 0.00 | 34 | 1012.5 |
| 20260503223057 | 58 | 332 | 2.6 | 7.0 | 0.00 | 0.00 | 0.00 | 34 | 1012.5 |
| 20260503221552 | 58 | 302 | 2.6 | 12.2 | 0.00 | 0.00 | 0.00 | 34 | 1012.6 |
| 20260503220050 | 59 | 295 | 6.1 | 15.6 | 0.00 | 0.00 | 0.00 | 33 | 1012.7 |
| 20260503214552 | 59 | 273 | 1.7 | 8.7 | 0.00 | 0.00 | 0.00 | 33 | 1012.6 |
| 20260503213104 | 59 | 249 | 3.5 | 10.4 | 0.00 | 0.00 | 0.00 | 35 | 1012.6 |
| 20260503211549 | 59 | 284 | 0.9 | 9.6 | 0.00 | 0.00 | 0.00 | 35 | 1012.3 |
| 20260503210059 | 59 | 0 | 6.1 | 12.2 | 0.00 | 0.00 | 0.00 | 34 | 1012.4 |
| 20260503204554 | 59 | 246 | 3.5 | 9.6 | 0.00 | 0.00 | 0.00 | 33 | 1012.5 |
| 20260503203105 | 59 | 154 | 1.7 | 11.3 | 0.00 | 0.00 | 0.00 | 34 | 1012.4 |
| 20260503201604 | 59 | 329 | 3.5 | 9.6 | 0.00 | 0.00 | 0.00 | 35 | 1012.7 |
| 20260503200058 | 58 | 310 | 7.0 | 12.2 | 0.00 | 0.00 | 0.00 | 33 | 1012.7 |
| 20260503194603 | 60 | 280 | 5.2 | 12.2 | 0.00 | 0.00 | 0.00 | 33 | 1012.8 |
| 20260503193101 | 59 | 313 | 4.3 | 11.3 | 0.00 | 0.00 | 0.00 | 34 | 1012.9 |
| 20260503191622 | 59 | 274 | 6.1 | 12.2 | 0.00 | 0.00 | 0.00 | 32 | 1013.2 |
| 20260503190103 | 58 | 94 | 1.7 | 12.2 | 0.00 | 0.00 | 0.00 | 35 | 1013.3 |
| 20260503184601 | 58 | 292 | 2.6 | 7.8 | 0.00 | 0.00 | 0.00 | 35 | 1013.3 |
| 20260503183112 | 58 | 327 | 4.3 | 13.9 | 0.00 | 0.00 | 0.00 | 33 | 1013.6 |
| 20260503181555 | 57 | 273 | 4.3 | 13.9 | 0.00 | 0.00 | 0.00 | 36 | 1013.6 |
| 20260503180053 | 56 | 240 | 3.5 | 9.6 | 0.00 | 0.00 | 0.00 | 34 | 1013.8 |
| 20260503174554 | 56 | 256 | 1.7 | 9.6 | 0.00 | 0.00 | 0.00 | 34 | 1013.8 |
| 20260503173113 | 56 | 277 | 3.5 | 11.3 | 0.00 | 0.00 | 0.00 | 38 | 1013.9 |
| 20260503171553 | 55 | 360 | 3.5 | 14.8 | 0.00 | 0.00 | 0.00 | 37 | 1014.1 |
| 20260503120109 | 42 | 161 | 0.9 | 7.8 | 0.00 | 0.00 | 0.00 | 61 | 1015.3 |